Time,TemperatureF,DewpointF,PressureIn,WindDirection,WindDirectionDegrees,WindSpeedMPH,WindSpeedGustMPH,Humidity,HourlyPrecipIn,Conditions,Clouds,dailyrainin,SoftwareType,DateUTC
2013-08-21 00:11:00,62.8,58.5,30.06,WSW,247,0.0,-999.0,86,-99.99,,,0.00,Acu-Link.com,2013-08-21 04:11:00,
2013-08-21 00:26:00,62.6,58.7,30.06,WSW,247,0.0,-999.0,87,-99.99,,,0.00,Acu-Link.com,2013-08-21 04:26:00,
2013-08-21 00:41:00,62.2,58.6,30.06,East,90,0.0,-999.0,88,-99.99,,,0.00,Acu-Link.com,2013-08-21 04:41:00,
2013-08-21 00:57:00,62.2,58.9,30.07,East,90,0.0,-999.0,89,-99.99,,,0.00,Acu-Link.com,2013-08-21 04:57:00,
2013-08-21 01:12:00,62.2,58.9,30.06,East,90,0.0,-999.0,89,-99.99,,,0.00,Acu-Link.com,2013-08-21 05:12:00,
2013-08-21 01:27:00,62.1,58.8,30.06,East,90,0.0,-999.0,89,-99.99,,,0.00,Acu-Link.com,2013-08-21 05:27:00,
2013-08-21 01:43:00,61.7,58.4,30.06,East,90,0.0,-999.0,89,-99.99,,,0.00,Acu-Link.com,2013-08-21 05:43:00,
2013-08-21 01:58:00,61.5,58.2,30.06,East,90,0.0,-999.0,89,-99.99,,,0.00,Acu-Link.com,2013-08-21 05:58:00,
2013-08-21 02:13:00,61.2,57.9,30.06,East,90,0.0,-999.0,89,-99.99,,,0.00,Acu-Link.com,2013-08-21 06:13:00,
2013-08-21 02:29:00,60.8,57.5,30.06,East,90,0.0,-999.0,89,-99.99,,,0.00,Acu-Link.com,2013-08-21 06:29:00,
2013-08-21 02:44:00,60.8,57.5,30.07,East,90,0.0,-999.0,89,-99.99,,,0.00,Acu-Link.com,2013-08-21 06:44:00,
2013-08-21 02:59:00,60.4,57.5,30.07,East,90,0.0,-999.0,90,-99.99,,,0.00,Acu-Link.com,2013-08-21 06:59:00,
2013-08-21 03:15:00,60.3,57.4,30.06,East,90,0.0,-999.0,90,-99.99,,,0.00,Acu-Link.com,2013-08-21 07:15:00,
2013-08-21 03:30:00,60.1,57.2,30.07,East,90,0.0,-999.0,90,-99.99,,,0.00,Acu-Link.com,2013-08-21 07:30:00,
2013-08-21 03:45:00,59.7,56.8,30.07,East,90,0.0,-999.0,90,-99.99,,,0.00,Acu-Link.com,2013-08-21 07:45:00,
2013-08-21 04:00:00,59.4,56.5,30.08,East,90,0.0,-999.0,90,-99.99,,,0.00,Acu-Link.com,2013-08-21 08:00:00,
2013-08-21 04:16:00,59.4,56.5,30.07,East,90,0.0,-999.0,90,-99.99,,,0.00,Acu-Link.com,2013-08-21 08:16:00,
2013-08-21 04:31:00,59.2,56.3,30.08,East,90,0.0,-999.0,90,-99.99,,,0.00,Acu-Link.com,2013-08-21 08:31:00,
2013-08-21 04:46:00,58.8,55.9,30.08,East,90,0.0,-999.0,90,-99.99,,,0.00,Acu-Link.com,2013-08-21 08:46:00,
2013-08-21 05:01:00,58.6,55.7,30.08,East,90,0.0,-999.0,90,-99.99,,,0.00,Acu-Link.com,2013-08-21 09:01:00,
2013-08-21 05:16:00,58.3,55.7,30.09,East,90,0.0,-999.0,91,-99.99,,,0.00,Acu-Link.com,2013-08-21 09:16:00,
2013-08-21 05:31:00,58.1,55.5,30.09,East,90,0.0,-999.0,91,-99.99,,,0.00,Acu-Link.com,2013-08-21 09:31:00,
2013-08-21 05:47:00,57.9,55.3,30.08,East,90,0.0,-999.0,91,-99.99,,,0.00,Acu-Link.com,2013-08-21 09:47:00,
2013-08-21 06:02:00,57.6,55.0,30.09,East,90,0.0,-999.0,91,-99.99,,,0.00,Acu-Link.com,2013-08-21 10:02:00,
2013-08-21 06:17:00,57.4,54.8,30.10,East,90,0.0,-999.0,91,-99.99,,,0.00,Acu-Link.com,2013-08-21 10:17:00,
2013-08-21 06:33:00,57.2,54.6,30.10,East,90,0.0,-999.0,91,-99.99,,,0.00,Acu-Link.com,2013-08-21 10:33:00,
2013-08-21 06:48:00,57.4,55.1,30.10,East,90,0.0,-999.0,92,-99.99,,,0.00,Acu-Link.com,2013-08-21 10:48:00,
2013-08-21 07:03:00,57.6,55.3,30.10,East,90,0.0,-999.0,92,-99.99,,,0.00,Acu-Link.com,2013-08-21 11:03:00,
2013-08-21 07:19:00,58.3,56.0,30.11,East,90,0.0,-999.0,92,-99.99,,,0.00,Acu-Link.com,2013-08-21 11:19:00,
2013-08-21 07:34:00,59.0,56.7,30.11,East,90,0.0,-999.0,92,-99.99,,,0.00,Acu-Link.com,2013-08-21 11:34:00,
2013-08-21 07:49:00,60.1,57.5,30.11,East,90,0.0,-999.0,91,-99.99,,,0.00,Acu-Link.com,2013-08-21 11:49:00,
2013-08-21 08:05:00,60.8,58.2,30.11,East,90,0.0,-999.0,91,-99.99,,,0.00,Acu-Link.com,2013-08-21 12:05:00,
2013-08-21 08:20:00,61.7,59.0,30.11,East,90,0.0,-999.0,91,-99.99,,,0.00,Acu-Link.com,2013-08-21 12:20:00,
2013-08-21 08:35:00,62.4,59.4,30.11,East,90,0.0,-999.0,90,-99.99,,,0.00,Acu-Link.com,2013-08-21 12:35:00,
2013-08-21 08:50:00,63.3,60.3,30.11,East,90,0.0,-999.0,90,-99.99,,,0.00,Acu-Link.com,2013-08-21 12:50:00,
2013-08-21 09:06:00,64.2,60.9,30.11,South,180,0.0,-999.0,89,-99.99,,,0.00,Acu-Link.com,2013-08-21 13:06:00,
2013-08-21 09:21:00,65.7,62.0,30.12,WSW,247,0.0,-999.0,88,-99.99,,,0.00,Acu-Link.com,2013-08-21 13:21:00,
2013-08-21 09:37:00,66.7,62.0,30.11,WSW,247,0.0,-999.0,85,-99.99,,,0.00,Acu-Link.com,2013-08-21 13:37:00,
2013-08-21 09:52:00,69.3,62.9,30.11,ESE,112,1.1,-999.0,80,-99.99,,,0.00,Acu-Link.com,2013-08-21 13:52:00,
2013-08-21 10:07:00,69.8,63.3,30.11,WNW,292,0.0,-999.0,80,-99.99,,,0.00,Acu-Link.com,2013-08-21 14:07:00,
2013-08-21 10:23:00,71.1,63.1,30.10,NW,315,0.0,-999.0,76,-99.99,,,0.00,Acu-Link.com,2013-08-21 14:23:00,
2013-08-21 10:38:00,73.4,64.2,30.10,ENE,67,1.1,-999.0,73,-99.99,,,0.00,Acu-Link.com,2013-08-21 14:38:00,
2013-08-21 10:53:00,74.7,63.8,30.10,WNW,292,0.0,-999.0,69,-99.99,,,0.00,Acu-Link.com,2013-08-21 14:53:00,
2013-08-21 11:09:00,75.7,64.4,30.09,West,270,0.0,-999.0,68,-99.99,,,0.00,Acu-Link.com,2013-08-21 15:09:00,
2013-08-21 11:24:00,77.2,63.6,30.09,ESE,112,1.1,-999.0,63,-99.99,,,0.00,Acu-Link.com,2013-08-21 15:24:00,
2013-08-21 11:39:00,79.0,65.3,30.08,ESE,112,0.0,-999.0,63,-99.99,,,0.00,Acu-Link.com,2013-08-21 15:39:00,
2013-08-21 11:54:00,80.1,64.9,30.08,ESE,112,1.1,-999.0,60,-99.99,,,0.00,Acu-Link.com,2013-08-21 15:54:00,
2013-08-21 12:10:00,80.8,65.6,30.08,WNW,292,1.7,-999.0,60,-99.99,,,0.00,Acu-Link.com,2013-08-21 16:10:00,
2013-08-21 12:25:00,80.6,65.4,30.07,WSW,247,0.0,-999.0,60,-99.99,,,0.00,Acu-Link.com,2013-08-21 16:25:00,
2013-08-21 12:40:00,85.5,66.9,30.07,ESE,112,0.0,-999.0,54,-99.99,,,0.00,Acu-Link.com,2013-08-21 16:40:00,
2013-08-21 12:55:00,86.0,66.3,30.06,ESE,112,1.1,-999.0,52,-99.99,,,0.00,Acu-Link.com,2013-08-21 16:55:00,
2013-08-21 13:10:00,86.0,65.2,30.06,West,270,2.2,-999.0,50,-99.99,,,0.00,Acu-Link.com,2013-08-21 17:10:00,
2013-08-21 13:26:00,84.0,63.3,30.05,WNW,292,1.1,-999.0,50,-99.99,,,0.00,Acu-Link.com,2013-08-21 17:26:00,
2013-08-21 13:41:00,87.3,63.3,30.05,WNW,292,1.1,-999.0,45,-99.99,,,0.00,Acu-Link.com,2013-08-21 17:41:00,
2013-08-21 13:56:00,88.5,64.4,30.04,WNW,292,0.0,-999.0,45,-99.99,,,0.00,Acu-Link.com,2013-08-21 17:56:00,
2013-08-21 14:11:00,89.4,63.9,30.04,SSE,157,0.0,-999.0,43,-99.99,,,0.00,Acu-Link.com,2013-08-21 18:11:00,
2013-08-21 14:26:00,85.5,62.9,30.03,NW,315,2.2,-999.0,47,-99.99,,,0.00,Acu-Link.com,2013-08-21 18:26:00,
2013-08-21 14:42:00,88.2,63.5,30.02,ESE,112,0.0,-999.0,44,-99.99,,,0.00,Acu-Link.com,2013-08-21 18:42:00,
2013-08-21 14:57:00,91.9,64.8,30.02,ESE,112,3.2,-999.0,41,-99.99,,,0.00,Acu-Link.com,2013-08-21 18:57:00,
2013-08-21 15:12:00,88.2,64.1,30.01,ESE,112,3.2,-999.0,45,-99.99,,,0.00,Acu-Link.com,2013-08-21 19:12:00,
2013-08-21 15:27:00,87.6,64.2,30.00,NE,45,0.0,-999.0,46,-99.99,,,0.00,Acu-Link.com,2013-08-21 19:27:00,
2013-08-21 15:43:00,86.7,64.6,30.00,ENE,67,0.0,-999.0,48,-99.99,,,0.00,Acu-Link.com,2013-08-21 19:43:00,
2013-08-21 15:58:00,88.3,63.6,29.98,WSW,247,1.7,-999.0,44,-99.99,,,0.00,Acu-Link.com,2013-08-21 19:58:00,
2013-08-21 16:13:00,87.6,64.8,29.99,West,270,0.0,-999.0,47,-99.99,,,0.00,Acu-Link.com,2013-08-21 20:13:00,
2013-08-21 16:28:00,89.4,64.6,29.98,WSW,247,0.0,-999.0,44,-99.99,,,0.00,Acu-Link.com,2013-08-21 20:28:00,
2013-08-21 16:43:00,89.1,65.0,29.98,East,90,0.0,-999.0,45,-99.99,,,0.00,Acu-Link.com,2013-08-21 20:43:00,
2013-08-21 16:59:00,88.7,64.6,29.97,East,90,1.1,-999.0,45,-99.99,,,0.00,Acu-Link.com,2013-08-21 20:59:00,
2013-08-21 17:14:00,87.8,64.4,29.97,ESE,112,0.0,-999.0,46,-99.99,,,0.00,Acu-Link.com,2013-08-21 21:14:00,
2013-08-21 17:29:00,87.4,64.0,29.97,NNE,22,0.0,-999.0,46,-99.99,,,0.00,Acu-Link.com,2013-08-21 21:29:00,
2013-08-21 17:44:00,86.7,64.0,29.97,East,90,0.0,-999.0,47,-99.99,,,0.00,Acu-Link.com,2013-08-21 21:44:00,
2013-08-21 18:00:00,86.2,65.3,29.97,East,90,0.0,-999.0,50,-99.99,,,0.00,Acu-Link.com,2013-08-21 22:00:00,
2013-08-21 18:15:00,85.5,65.3,29.96,East,90,0.0,-999.0,51,-99.99,,,0.00,Acu-Link.com,2013-08-21 22:15:00,
2013-08-21 18:30:00,84.6,65.6,29.96,North,0,0.0,-999.0,53,-99.99,,,0.00,Acu-Link.com,2013-08-21 22:30:00,
2013-08-21 18:45:00,83.5,66.1,29.95,North,0,0.0,-999.0,56,-99.99,,,0.00,Acu-Link.com,2013-08-21 22:45:00,
2013-08-21 19:00:00,82.4,65.6,29.95,NE,45,0.0,-999.0,57,-99.99,,,0.00,Acu-Link.com,2013-08-21 23:00:00,
2013-08-21 19:15:00,81.5,65.8,29.95,East,90,0.0,-999.0,59,-99.99,,,0.00,Acu-Link.com,2013-08-21 23:15:00,
2013-08-21 19:31:00,80.6,66.4,29.94,East,90,0.0,-999.0,62,-99.99,,,0.00,Acu-Link.com,2013-08-21 23:31:00,
2013-08-21 19:46:00,79.2,66.8,29.94,East,90,0.0,-999.0,66,-99.99,,,0.00,Acu-Link.com,2013-08-21 23:46:00,
2013-08-21 20:01:00,78.1,66.7,29.94,East,90,0.0,-999.0,68,-99.99,,,0.00,Acu-Link.com,2013-08-22 00:01:00,
2013-08-21 20:17:00,76.8,66.7,29.95,East,90,0.0,-999.0,71,-99.99,,,0.00,Acu-Link.com,2013-08-22 00:17:00,
2013-08-21 20:32:00,76.1,67.2,29.94,East,90,0.0,-999.0,74,-99.99,,,0.00,Acu-Link.com,2013-08-22 00:32:00,
2013-08-21 20:47:00,75.2,66.3,29.95,East,90,0.0,-999.0,74,-99.99,,,0.00,Acu-Link.com,2013-08-22 00:47:00,
2013-08-21 21:03:00,74.5,66.4,29.97,East,90,0.0,-999.0,76,-99.99,,,0.00,Acu-Link.com,2013-08-22 01:03:00,
2013-08-21 21:18:00,73.9,65.8,29.96,East,90,0.0,-999.0,76,-99.99,,,0.00,Acu-Link.com,2013-08-22 01:18:00,
2013-08-21 21:33:00,73.4,65.7,29.96,East,90,0.0,-999.0,77,-99.99,,,0.00,Acu-Link.com,2013-08-22 01:33:00,
2013-08-21 21:49:00,72.9,65.6,29.95,East,90,0.0,-999.0,78,-99.99,,,0.00,Acu-Link.com,2013-08-22 01:49:00,
2013-08-21 22:04:00,72.3,65.8,29.96,East,90,0.0,-999.0,80,-99.99,,,0.00,Acu-Link.com,2013-08-22 02:04:00,
2013-08-21 22:19:00,72.0,65.5,29.96,East,90,0.0,-999.0,80,-99.99,,,0.00,Acu-Link.com,2013-08-22 02:19:00,
2013-08-21 22:35:00,71.6,65.5,29.95,East,90,0.0,-999.0,81,-99.99,,,0.00,Acu-Link.com,2013-08-22 02:35:00,
2013-08-21 22:50:00,71.2,65.1,29.94,East,90,0.0,-999.0,81,-99.99,,,0.00,Acu-Link.com,2013-08-22 02:50:00,
2013-08-21 23:05:00,70.9,64.8,29.94,East,90,0.0,-999.0,81,-99.99,,,0.00,Acu-Link.com,2013-08-22 03:05:00,
2013-08-21 23:20:00,70.5,65.1,29.94,East,90,0.0,-999.0,83,-99.99,,,0.00,Acu-Link.com,2013-08-22 03:20:00,
2013-08-21 23:36:00,70.3,64.9,29.94,East,90,0.0,-999.0,83,-99.99,,,0.00,Acu-Link.com,2013-08-22 03:36:00,
2013-08-21 23:51:00,70.0,64.9,29.94,East,90,0.0,-999.0,84,-99.99,,,0.00,Acu-Link.com,2013-08-22 03:51:00,